FW4212 Weather Reports


Display with metric or nautical units.
time (UTC)temp
F
wind
direction
speed
MPH
gust
MPH
rain 1hr
in
rain 24hr
in
rain mn
in
humidity
%
barometer
mb
20260901122528 71 267 0.0 2.0 0.00 0.00 0.00 97 1020.9
20260901122028 71 223 0.0 2.0 0.00 0.00 0.00 97 1020.8
20260901121532 71 260 0.0 0.0 0.00 0.00 0.00 97 1020.8
20260901121029 70 260 0.0 0.0 0.00 0.00 0.00 97 1020.7
20260901120529 70 260 0.0 1.0 0.00 0.00 0.00 97 1020.7
20260901120027 70 225 0.0 0.0 0.00 0.00 0.00 97 1020.7
20260901115530 70 225 0.0 0.0 0.00 0.00 0.00 98 1020.7
20260901115030 69 225 0.0 0.0 0.00 0.00 0.00 98 1020.6
20260901114529 69 225 0.0 0.0 0.00 0.00 0.00 97 1020.6
20260901114026 69 225 0.0 0.0 0.00 0.00 0.00 98 1020.6
20260901113527 69 225 0.0 0.0 0.00 0.00 0.00 98 1020.6
20260901113026 69 225 0.0 0.0 0.00 0.00 0.00 98 1020.4
20260901112526 69 225 0.0 0.0 0.00 0.00 0.00 98 1020.5
20260901112025 69 225 0.0 0.0 0.00 0.00 0.00 97 1020.3
20260901111525 69 225 0.0 0.0 0.00 0.00 0.00 97 1020.2
20260901111024 69 225 0.0 0.0 0.00 0.00 0.00 97 1020.3
20260901110525 69 225 0.0 0.0 0.00 0.00 0.00 97 1020.1
20260901110024 69 225 0.0 0.0 0.00 0.00 0.00 97 1020.0
20260901105525 69 225 0.0 0.0 0.00 0.00 0.00 97 1019.9
20260901105024 69 225 0.0 0.0 0.00 0.00 0.00 97 1019.8
20260901104530 69 225 0.0 0.0 0.00 0.00 0.00 97 1019.9
20260901104024 69 225 0.0 0.0 0.00 0.00 0.00 97 1019.8
20260901103521 69 225 0.0 0.0 0.00 0.00 0.00 97 1019.8
20260901103021 69 225 0.0 0.0 0.00 0.00 0.00 97 1019.8
20260901102525 69 225 0.0 0.0 0.00 0.00 0.00 97 1019.8
20260901102021 69 225 0.0 1.0 0.00 0.00 0.00 97 1019.8
20260901101521 69 225 0.0 1.0 0.00 0.00 0.00 97 1019.8
20260901101022 69 205 0.0 1.0 0.00 0.00 0.00 97 1019.8
20260901100520 69 205 0.0 2.0 0.00 0.00 0.00 97 1019.8
20260901100020 69 210 0.0 2.0 0.00 0.00 0.00 97 1019.7
20260901095519 69 248 0.0 0.0 0.00 0.00 0.00 97 1019.7
20260901095019 69 248 0.0 0.0 0.00 0.00 0.00 97 1019.6
20260901094518 70 248 0.0 0.0 0.00 0.00 0.00 97 1019.5
20260901094018 70 248 0.0 0.0 0.00 0.00 0.00 97 1019.6
20260901093517 70 248 0.0 0.0 0.00 0.00 0.00 97 1019.6
20260901093017 70 248 0.0 0.0 0.00 0.00 0.00 97 1019.6
20260901092517 70 248 0.0 0.0 0.00 0.00 0.00 97 1019.7
20260901092021 70 213 0.0 0.0 0.00 0.00 0.00 97 1019.7
20260901091519 70 213 0.0 0.0 0.00 0.00 0.00 97 1019.7
20260901091016 70 213 0.0 0.0 0.00 0.00 0.00 97 1019.6
20260901090515 70 213 0.0 0.0 0.00 0.00 0.00 97 1019.6
20260901090018 70 213 0.0 0.0 0.00 0.00 0.00 97 1019.6
20260901085514 70 213 0.0 0.0 0.00 0.00 0.00 97 1019.5
20260901085013 70 213 0.0 0.0 0.00 0.00 0.00 97 1019.7
20260901084513 70 213 0.0 0.0 0.00 0.00 0.00 97 1019.7
20260901084014 70 213 0.0 0.0 0.00 0.00 0.00 97 1019.6
20260901083512 70 213 0.0 0.0 0.00 0.00 0.00 97 1019.7
20260901083017 71 213 0.0 0.0 0.00 0.00 0.00 97 1019.7
20260901082510 71 213 0.0 0.0 0.00 0.00 0.00 97 1019.7
20260901082010 70 213 0.0 0.0 0.00 0.00 0.00 97 1019.8
20260901081511 71 213 0.0 0.0 0.00 0.00 0.00 97 1020.0
20260901081010 71 213 0.0 0.0 0.00 0.00 0.00 97 1019.9
20260901080512 71 213 0.0 0.0 0.00 0.00 0.00 97 1020.0
20260901080010 71 213 0.0 0.0 0.00 0.00 0.00 97 1020.0
20260901075510 71 213 0.0 0.0 0.00 0.00 0.00 97 1020.1
20260901075010 71 213 0.0 0.0 0.00 0.00 0.00 97 1020.1
20260901074509 71 213 0.0 0.0 0.00 0.00 0.00 97 1020.1
20260901074008 71 213 0.0 0.0 0.00 0.00 0.00 97 1020.0
20260901073507 71 213 0.0 0.0 0.00 0.00 0.00 97 1019.9
20260901073008 71 213 0.0 0.0 0.00 0.00 0.00 97 1020.0
20260901072506 71 213 0.0 0.0 0.00 0.00 0.00 97 1020.1
20260901072006 71 213 0.0 0.0 0.00 0.00 0.00 97 1020.3
20260901071004 71 213 0.0 0.0 0.00 0.00 0.00 97 1020.2
20260901070503 71 213 0.0 0.0 0.00 0.00 0.00 97 1020.3
20260901070003 71 213 0.0 0.0 0.00 0.00 0.00 97 1020.2
20260901065503 71 213 0.0 0.0 0.00 0.00 0.00 97 1020.3
20260901065003 71 213 0.0 0.0 0.00 0.00 0.00 97 1020.3
20260901064504 71 213 0.0 0.0 0.00 0.00 0.00 96 1020.3
20260901064005 71 213 0.0 0.0 0.00 0.00 0.00 96 1020.3
20260901063600 71 213 0.0 0.0 0.00 0.00 0.00 96 1020.3
20260901063126 71 213 0.0 0.0 0.00 0.00 0.00 96 1020.4
20260901062601 71 213 0.0 0.0 0.00 0.00 0.00 97 1020.5
20260901062100 71 213 0.0 0.0 0.00 0.00 0.00 96 1020.6
20260901061600 71 213 0.0 0.0 0.00 0.00 0.00 96 1020.6
20260901061059 71 213 0.0 0.0 0.00 0.00 0.00 97 1020.6
20260901060602 71 213 0.0 0.0 0.00 0.00 0.00 97 1020.6
20260901060058 71 213 0.0 0.0 0.00 0.00 0.00 96 1020.5
20260901055558 71 213 0.0 0.0 0.00 0.00 0.00 96 1020.6
20260901055101 71 213 0.0 0.0 0.00 0.00 0.00 96 1020.6
20260901054558 71 213 0.0 0.0 0.00 0.00 0.00 96 1020.6
20260901054057 71 213 0.0 0.0 0.00 0.00 0.00 96 1020.6
20260901053558 71 213 0.0 0.0 0.00 0.00 0.00 96 1020.6
20260901053116 71 213 0.0 0.0 0.00 0.00 0.00 96 1020.8
20260901052556 71 213 0.0 0.0 0.00 0.00 0.00 96 1020.7
20260901052056 71 213 0.0 0.0 0.00 0.00 0.00 96 1020.8
20260901051610 71 213 0.0 0.0 0.00 0.00 0.00 95 1020.8
20260901051057 72 213 0.0 0.0 0.00 0.00 0.00 95 1020.8
20260901050554 72 213 0.0 0.0 0.00 0.00 0.00 96 1020.8
20260901050054 72 213 0.0 0.0 0.00 0.00 0.00 96 1020.7
20260901045556 72 213 0.0 0.0 0.00 0.00 0.00 96 1020.6
20260901045053 72 213 0.0 0.0 0.00 0.00 0.00 96 1020.5
20260901044553 72 213 0.0 0.0 0.00 0.00 0.00 96 1020.6
20260901044052 72 213 0.0 0.0 0.00 0.00 0.00 95 1020.6
20260901043552 72 213 0.0 0.0 0.00 0.00 0.00 95 1020.6
20260901043100 72 213 0.0 0.0 0.00 0.00 0.00 95 1020.5
20260901042553 72 213 0.0 0.0 0.00 0.00 0.00 95 1020.5
20260901042051 72 213 0.0 0.0 0.00 0.00 0.00 95 1020.6
20260901041602 72 213 0.0 0.0 0.00 0.00 0.00 95 1020.7
20260901041052 72 213 0.0 0.0 0.00 0.00 0.00 95 1020.7
20260901040549 72 213 0.0 0.0 0.00 0.00 0.00 95 1020.7
20260901040048 73 213 0.0 0.0 0.00 0.00 0.00 95 1020.7
20260901035548 73 213 0.0 0.0 0.00 0.00 0.00 95 1020.6
20260901035047 73 213 0.0 0.0 0.00 0.00 0.00 95 1020.5
20260901034547 73 213 0.0 0.0 0.00 0.00 0.00 94 1020.4
20260901034046 73 213 0.0 0.0 0.00 0.00 0.00 94 1020.4
20260901033547 73 213 0.0 0.0 0.00 0.00 0.00 94 1020.4
20260901033047 73 213 0.0 0.0 0.00 0.00 0.00 94 1020.4
20260901032550 73 213 0.0 0.0 0.00 0.00 0.00 94 1020.3
20260901032047 73 213 0.0 0.0 0.00 0.00 0.00 94 1020.3
20260901031556 73 213 0.0 0.0 0.00 0.00 0.00 94 1020.3
20260901031046 73 213 0.0 0.0 0.00 0.00 0.00 94 1020.3
20260901030546 73 213 0.0 0.0 0.00 0.00 0.00 93 1020.4
20260901030046 73 213 0.0 0.0 0.00 0.00 0.00 93 1020.5
20260901025546 73 213 0.0 0.0 0.00 0.00 0.00 93 1020.4
20260901025046 74 213 0.0 0.0 0.00 0.00 0.00 93 1020.4
20260901024545 74 213 0.0 0.0 0.00 0.00 0.00 93 1020.5
20260901024047 74 213 0.0 0.0 0.00 0.00 0.00 93 1020.6
20260901023545 74 213 0.0 0.0 0.00 0.00 0.00 92 1020.5
20260901023045 74 213 0.0 0.0 0.00 0.00 0.00 92 1020.5
20260901022546 74 213 0.0 0.0 0.00 0.00 0.00 92 1020.4
20260901022045 74 213 0.0 0.0 0.00 0.00 0.00 92 1020.4
20260901021545 74 213 0.0 0.0 0.00 0.00 0.00 92 1020.4
20260901021045 74 213 0.0 0.0 0.00 0.00 0.00 92 1020.4
20260901020545 74 213 0.0 0.0 0.00 0.00 0.00 92 1020.4
20260901020045 74 213 0.0 0.0 0.00 0.00 0.00 93 1020.2
20260901015544 75 213 0.0 0.0 0.00 0.00 0.00 93 1020.3
20260901015044 75 213 0.0 0.0 0.00 0.00 0.00 92 1020.2
20260901014547 75 213 0.0 0.0 0.00 0.00 0.00 92 1020.2
20260901014044 75 213 0.0 0.0 0.00 0.00 0.00 92 1020.1
20260901013543 75 213 0.0 0.0 0.00 0.00 0.00 91 1020.1
20260901013044 76 213 0.0 0.0 0.00 0.00 0.00 91 1020.0
20260901012542 76 213 0.0 0.0 0.00 0.00 0.00 91 1019.9
20260901012042 76 213 0.0 0.0 0.00 0.00 0.00 91 1019.9
20260901011543 76 213 0.0 0.0 0.00 0.00 0.00 91 1020.0
20260901011044 76 213 0.0 0.0 0.00 0.00 0.00 90 1019.9
20260901010545 76 213 0.0 0.0 0.00 0.00 0.00 90 1019.8
20260901010045 76 213 0.0 0.0 0.00 0.00 0.00 90 1019.7
20260901005543 76 213 0.0 0.0 0.00 0.00 0.00 90 1019.6
20260901005043 76 213 0.0 0.0 0.00 0.00 0.00 89 1019.6
20260901004543 76 213 0.0 0.0 0.00 0.00 0.00 89 1019.6
20260901004041 77 213 0.0 0.0 0.00 0.00 0.00 89 1019.7
20260901003541 77 213 0.0 0.0 0.00 0.00 0.00 88 1019.7
20260901003041 77 213 0.0 0.0 0.00 0.00 0.00 88 1019.6
20260901002541 77 213 0.0 0.0 0.00 0.00 0.00 88 1019.6
20260901002044 78 213 0.0 0.0 0.00 0.00 0.00 87 1019.6
20260901001550 78 213 0.0 0.0 0.00 0.00 0.00 87 1019.5
20260901001041 78 213 0.0 0.0 0.00 0.00 0.00 88 1019.6
20260901000541 78 213 0.0 0.0 0.00 0.00 0.00 88 1019.5
20260901000041 78 218 0.0 0.0 0.00 0.00 0.00 86 1019.5
20260831235541 79 218 0.0 0.0 0.00 0.00 0.00 85 1019.4
20260831235041 79 218 0.0 0.0 0.00 0.00 0.00 84 1019.4
20260831234550 79 218 0.0 0.0 0.00 0.00 0.00 84 1019.4
20260831234041 80 218 0.0 1.0 0.00 0.00 0.00 83 1019.3
20260831233541 80 218 0.0 3.0 0.00 0.00 0.00 82 1019.4
20260831233038 80 206 0.0 3.0 0.00 0.00 0.00 83 1019.3
20260831232538 80 106 0.0 0.0 0.00 0.00 0.00 82 1019.4
20260831232039 81 106 0.0 0.0 0.00 0.00 0.00 81 1019.4
20260831231538 81 106 0.0 0.0 0.00 0.00 0.00 82 1019.4
20260831231038 82 106 0.0 0.0 0.00 0.00 0.00 81 1019.5
20260831230538 82 106 0.0 0.0 0.00 0.00 0.00 80 1019.4
20260831230037 82 106 0.0 0.0 0.00 0.00 0.00 79 1019.5
20260831225537 82 106 0.0 0.0 0.00 0.00 0.00 80 1019.5
20260831225036 82 106 0.0 0.0 0.00 0.00 0.00 78 1019.5
20260831224536 82 106 0.0 0.0 0.00 0.00 0.00 78 1019.5
20260831224036 82 106 0.0 0.0 0.00 0.00 0.00 78 1019.5
20260831223536 82 106 0.0 0.0 0.00 0.00 0.00 77 1019.6
20260831223035 83 106 0.0 0.0 0.00 0.00 0.00 76 1019.5
20260831222538 84 106 0.0 0.0 0.00 0.00 0.00 76 1019.6
20260831222035 84 106 0.0 0.0 0.00 0.00 0.00 74 1019.6
20260831221536 83 86 0.0 0.0 0.00 0.00 0.00 78 1019.6
20260831221033 84 86 0.0 2.0 0.00 0.00 0.00 76 1019.6
20260831220533 83 86 0.0 2.0 0.00 0.00 0.00 76 1019.7
20260831220033 83 67 0.0 0.0 0.00 0.00 0.00 77 1019.7
20260831215533 84 78 0.0 0.0 0.00 0.00 0.00 76 1019.7
20260831215033 83 78 0.0 0.0 0.00 0.00 0.00 75 1019.7
20260831214532 83 85 0.0 0.0 0.00 0.00 0.00 77 1019.8
20260831214032 81 85 0.0 0.0 0.00 0.00 0.00 81 1019.8
20260831213535 81 85 0.0 0.0 0.00 0.00 0.00 80 1019.7
20260831213031 81 85 0.0 0.0 0.00 0.00 0.00 79 1019.9
20260831212531 81 98 0.0 0.0 0.00 0.00 0.00 80 1019.8
20260831212031 81 59 0.0 0.0 0.00 0.00 0.00 79 1019.8
20260831211531 81 59 0.0 2.0 0.00 0.00 0.00 77 1019.9
20260831211031 82 57 0.0 2.0 0.00 0.00 0.00 80 1019.8
20260831210530 82 78 0.0 0.0 0.00 0.00 0.00 79 1019.9
20260831210029 82 84 0.0 2.0 0.00 0.00 0.00 76 1019.9
20260831205529 82 84 0.0 6.0 0.00 0.00 0.00 75 1019.9
20260831205029 83 88 1.0 6.0 0.00 0.00 0.00 74 1020.0
20260831204530 83 80 1.0 8.0 0.00 0.00 0.00 74 1020.0
20260831204029 84 141 4.0 8.0 0.00 0.00 0.00 72 1020.0
20260831203529 86 83 2.0 4.0 0.00 0.00 0.00 67 1020.0
20260831203034 86 232 1.0 2.0 0.00 0.00 0.00 70 1020.0
20260831202527 85 355 0.0 2.0 0.00 0.00 0.00 73 1020.2
20260831202026 84 54 0.0 0.0 0.00 0.00 0.00 78 1020.2
20260831201526 83 350 0.0 0.0 0.00 0.00 0.00 79 1020.2
20260831201028 82 355 0.0 0.0 0.00 0.00 0.00 78 1020.3
20260831200526 82 355 0.0 0.0 0.00 0.00 0.00 78 1020.2
20260831200025 82 355 0.0 0.0 0.00 0.00 0.00 79 1020.3
20260831195525 83 355 0.0 0.0 0.00 0.00 0.00 77 1020.3
20260831195024 83 355 0.0 0.0 0.00 0.00 0.00 76 1020.3
20260831194523 83 318 0.0 1.0 0.00 0.00 0.00 78 1020.5
20260831194026 83 318 0.0 1.0 0.00 0.00 0.00 77 1020.6
20260831193523 83 318 0.0 1.0 0.00 0.00 0.00 76 1020.6
20260831193022 83 318 0.0 0.0 0.00 0.00 0.00 73 1020.6
20260831192522 84 58 0.0 0.0 0.00 0.00 0.00 72 1020.5
20260831192020 84 107 0.0 0.0 0.00 0.00 0.00 73 1020.6
20260831191520 85 81 0.0 2.0 0.00 0.00 0.00 69 1020.6
20260831191020 85 80 0.0 2.0 0.00 0.00 0.00 69 1020.7
20260831190520 86 91 0.0 3.0 0.00 0.00 0.00 66 1020.7
20260831190022 86 84 0.0 6.0 0.00 0.00 0.00 65 1020.8
20260831185520 87 142 0.0 6.0 0.00 0.00 0.00 61 1020.8
20260831185019 87 141 0.0 3.0 0.00 0.00 0.00 62 1020.7
20260831184520 87 88 1.0 3.0 0.00 0.00 0.00 60 1020.7
20260831184018 86 109 0.0 2.0 0.00 0.00 0.00 62 1020.6
20260831183518 87 240 0.0 3.0 0.00 0.00 0.00 64 1020.7
20260831183018 87 306 0.0 5.0 0.00 0.00 0.00 67 1020.8
20260831182518 87 314 0.0 5.0 0.00 0.00 0.00 59 1020.9
20260831182017 87 88 2.0 5.0 0.00 0.00 0.00 62 1020.9
20260831181519 87 70 2.0 4.0 0.00 0.00 0.00 60 1020.9
20260831181017 86 128 0.0 3.0 0.00 0.00 0.00 69 1021.0
20260831180516 87 138 0.0 3.0 0.00 0.00 0.00 63 1021.0
20260831180023 87 191 0.0 3.0 0.00 0.00 0.00 62 1021.0
20260831175516 87 228 0.0 3.0 0.00 0.00 0.00 64 1021.0
20260831175015 87 209 0.0 3.0 0.00 0.00 0.00 67 1021.1
20260831174520 87 115 0.0 3.0 0.00 0.00 0.00 63 1021.2
20260831174014 87 138 1.0 4.0 0.00 0.00 0.00 62 1021.2
20260831173514 87 224 1.0 4.0 0.00 0.00 0.00 64 1021.2
20260831173016 87 245 0.0 4.0 0.00 0.00 0.00 68 1021.3
20260831172512 86 252 0.0 2.0 0.00 0.00 0.00 65 1021.3
20260831172013 85 144 1.0 2.0 0.00 0.00 0.00 68 1021.4
20260831171511 85 150 0.0 3.0 0.00 0.00 0.00 66 1021.3
20260831171011 86 263 0.0 4.0 0.00 0.00 0.00 68 1021.3
20260831170510 86 198 0.0 3.0 0.00 0.00 0.00 66 1021.3
20260831170013 86 237 0.0 3.0 0.00 0.00 0.00 66 1021.4
20260831165511 85 346 1.0 3.0 0.00 0.00 0.00 67 1021.4
20260831165010 86 235 1.0 3.0 0.00 0.00 0.00 69 1021.6
20260831164511 86 210 1.0 2.0 0.00 0.00 0.00 69 1021.5
20260831164010 85 248 0.0 4.0 0.00 0.00 0.00 68 1021.5
20260831163508 85 273 0.0 4.0 0.00 0.00 0.00 66 1021.6
20260831163007 85 214 0.0 3.0 0.00 0.00 0.00 69 1021.7
20260831162506 85 94 0.0 4.0 0.00 0.00 0.00 69 1021.7
20260831162006 84 109 2.0 4.0 0.00 0.00 0.00 69 1021.8
20260831161506 85 118 2.0 4.0 0.00 0.00 0.00 70 1021.9
20260831161005 84 84 1.0 4.0 0.00 0.00 0.00 68 1021.9
20260831160504 84 74 0.0 4.0 0.00 0.00 0.00 76 1021.8
20260831160003 84 252 1.0 4.0 0.00 0.00 0.00 76 1021.8
20260831155503 84 264 1.0 3.0 0.00 0.00 0.00 72 1021.8
20260831155000 83 86 0.0 3.0 0.00 0.00 0.00 76 1021.9
20260831154600 82 159 0.0 2.0 0.00 0.00 0.00 75 1021.9
20260831154502 82 167 0.0 2.0 0.00 0.00 0.00 73 1022.0
20260831154201 82 150 0.0 2.0 0.00 0.00 0.00 74 1022.0
20260831153601 82 238 0.0 2.0 0.00 0.00 0.00 73 1022.0
20260831153058 82 309 0.0 2.0 0.00 0.00 0.00 76 1022.0
20260831152558 82 248 0.0 4.0 0.00 0.00 0.00 78 1021.9
20260831152057 81 202 0.0 4.0 0.00 0.00 0.00 76 1021.9
20260831151600 81 82 0.0 3.0 0.00 0.00 0.00 77 1022.0
20260831151058 81 250 0.0 3.0 0.00 0.00 0.00 81 1022.0
20260831150556 80 202 0.0 2.0 0.00 0.00 0.00 79 1022.0
20260831150057 80 197 0.0 3.0 0.00 0.00 0.00 79 1022.0
20260831145553 80 213 0.0 4.0 0.00 0.00 0.00 84 1022.0
20260831145057 79 203 1.0 4.0 0.00 0.00 0.00 80 1022.2
20260831144552 79 224 0.0 3.0 0.00 0.00 0.00 81 1022.1
20260831144052 79 230 0.0 3.0 0.00 0.00 0.00 81 1022.1
20260831143551 79 144 0.0 3.0 0.00 0.00 0.00 83 1021.9
20260831143105 79 113 0.0 1.0 0.00 0.00 0.00 84 1021.9
20260831142550 79 121 0.0 3.0 0.00 0.00 0.00 84 1021.9
20260831142050 79 205 0.0 4.0 0.00 0.00 0.00 85 1021.8
20260831141550 78 256 1.0 4.0 0.00 0.00 0.00 82 1021.9
20260831141047 78 308 0.0 3.0 0.00 0.00 0.00 84 1021.9
20260831140546 77 252 1.0 3.0 0.00 0.00 0.00 85 1021.9
20260831140049 77 222 0.0 3.0 0.00 0.00 0.00 85 1021.8
20260831135544 77 275 1.0 3.0 0.00 0.00 0.00 85 1021.9
20260831135045 76 219 1.0 4.0 0.00 0.00 0.00 86 1021.9
20260831134543 76 251 1.0 4.0 0.00 0.00 0.00 86 1022.0
20260831134040 75 320 1.0 4.0 0.00 0.00 0.00 88 1022.1
20260831133539 75 240 0.0 3.0 0.00 0.00 0.00 90 1022.0
20260831133038 74 236 0.0 3.0 0.00 0.00 0.00 91 1022.0
20260831132537 74 217 0.0 2.0 0.00 0.00 0.00 91 1022.0
20260831132035 74 216 0.0 0.0 0.00 0.00 0.00 93 1022.1
20260831131534 73 234 0.0 0.0 0.00 0.00 0.00 94 1022.1
20260831131033 73 234 0.0 2.0 0.00 0.00 0.00 94 1022.0
20260831130533 72 234 0.0 2.0 0.00 0.00 0.00 95 1022.0
20260831130030 72 216 0.0 2.0 0.00 0.00 0.00 96 1022.0
20260831125529 72 249 0.0 0.0 0.00 0.00 0.00 97 1022.1
20260831125029 71 249 0.0 0.0 0.00 0.00 0.00 97 1022.1
20260831124526 71 249 0.0 2.0 0.00 0.00 0.00 97 1022.1
20260831124025 70 263 1.0 2.0 0.00 0.00 0.00 98 1022.1
20260831123523 70 223 0.0 0.0 0.00 0.00 0.00 98 1022.1